• Processing (Info)

  • MPEC 2005-X27 : 2005 XK4

    The following Minor Planet Electronic Circular may be linked-to from your own Web pages, but must not otherwise be redistributed electronically.

    A form allowing access to any MPEC is at the bottom of this page.


    Read MPEC 2005-X26 Read MPEC 2005-X28


    M.P.E.C. 2005-X27                                Issued 2005 Dec. 6, 16:32 UT
    
         The Minor Planet Electronic Circulars contain information on unusual
             minor planets and routine data on comets.  They are published
       on behalf of Commission 20 of the International Astronomical Union by the
              Minor Planet Center, Smithsonian Astrophysical Observatory,
                              Cambridge, MA 02138, U.S.A.
    
                      Supported in part by the Brinson Foundation
                      Supported in part by the TABASGO Foundation
                 Prepared using the Tamkin Foundation Computer Network
    
                                  MPC@CFA.HARVARD.EDU
              URL http://cfa-www.harvard.edu/iau/mpc.html  ISSN 1523-6714
    
                                       2005 XK4
    
    Observations:
         K05X04K* C2005 12 04.30066 04 15 12.67 +19 59 36.7          21.0 V EX027G96
         K05X04K  C2005 12 04.30563 04 15 11.44 +19 59 15.9          20.3 V EX027G96
         K05X04K  C2005 12 04.31062 04 15 10.33 +19 58 55.2          20.5 V EX027G96
         K05X04K  C2005 12 04.31566 04 15 09.14 +19 58 33.9          20.5 V EX027G96
         K05X04K  C2005 12 04.35612 04 14 59.74 +19 55 46.1          20.2 V EX027G96
         K05X04K  C2005 12 04.35790 04 14 59.38 +19 55 38.2          20.4 V EX027G96
         K05X04K  C2005 12 04.35971 04 14 58.92 +19 55 30.0          20.7 V EX027G96
         K05X04K  C2005 12 04.36148 04 14 58.52 +19 55 23.6          21.1 V EX027G96
         K05X04K  C2005 12 04.37707 04 14 54.99 +19 54 18.4          20.2 V EX027G96
         K05X04K  C2005 12 04.37798 04 14 54.78 +19 54 14.6          20.4 V EX027G96
         K05X04K  C2005 12 04.37885 04 14 54.60 +19 54 11.2          20.5 V EX027G96
         K05X04K  C2005 12 04.37973 04 14 54.42 +19 54 07.4          20.7 V EX027G96
         K05X04K  C2005 12 05.27354 04 12 12.38 +18 58 15.7          21.7 V EX027G96
         K05X04K  C2005 12 05.27716 04 12 11.73 +18 58 03.7          20.8 V EX027G96
         K05X04K  C2005 12 05.28079 04 12 11.12 +18 57 51.1          21.1 V EX027G96
         K05X04K  C2005 12 05.28440 04 12 10.33 +18 57 38.7          20.5 V EX027G96
         K05X04K  C2005 12 05.31260 04 12 04.89 +18 56 01.1          20.8 V EX027G96
         K05X04K  C2005 12 05.31620 04 12 04.17 +18 55 48.8          20.8 V EX027G96
         K05X04K  C2005 12 05.31980 04 12 03.49 +18 55 36.2          20.2 V EX027G96
         K05X04K  C2005 12 05.32344 04 12 02.80 +18 55 23.9          20.6 V EX027G96
         K05X04K  C2005 12 06.27618 04 09 39.78 +18 05 26.8          20.7 V EX027G96
         K05X04K  C2005 12 06.27706 04 09 39.67 +18 05 24.2          20.1 V EX027G96
         K05X04K  C2005 12 06.27918 04 09 39.31 +18 05 18.0          21.1 V EX027G96
         K05X04K  C2005 12 06.28006 04 09 39.13 +18 05 16.2          21.1 V EX027G96
         K05X04K  C2005 12 06.28214 04 09 38.80 +18 05 10.1          20.9 V EX027G96
         K05X04K  C2005 12 06.28302 04 09 38.66 +18 05 07.2          20.9 V EX027G96
         K05X04K  C2005 12 06.28508 04 09 38.34 +18 05 01.7          21.0 V EX027G96
         K05X04K  C2005 12 06.28596 04 09 38.19 +18 04 59.1          21.5 V EX027G96
         K05X04K  C2005 12 06.31523 04 09 33.52 +18 03 33.9          20.6 V EX027G96
         K05X04K  C2005 12 06.31620 04 09 33.33 +18 03 31.1          21.1 V EX027G96
         K05X04K  C2005 12 06.31833 04 09 33.03 +18 03 24.7          20.5 V EX027G96
         K05X04K  C2005 12 06.31921 04 09 32.86 +18 03 22.7          21.4 V EX027G96
         K05X04K  C2005 12 06.32129 04 09 32.52 +18 03 16.3          21.1 V EX027G96
         K05X04K  C2005 12 06.32216 04 09 32.32 +18 03 13.7          21.1 V EX027G96
         K05X04K  C2005 12 06.32424 04 09 32.04 +18 03 07.6          20.9 V EX027G96
         K05X04K  C2005 12 06.32512 04 09 31.89 +18 03 05.3          21.1 V EX027G96
    
    Observer details:
    G96 Mt. Lemmon Survey.  Observer A. D. Grauer.  Measurers E. C. Beshore,
        E. J. Christensen, G. J. Garradd, A. D. Grauer, R. E. Hill, R. A. Kowalski,
        S. M. Larson, R. H. McNaught.  1.5-m reflector + CCD.
    
    Orbital elements:
    2005 XK4
    Epoch 2006 Mar. 6.0 TT = JDT 2453800.5                  MPC
    M  96.40978              (2000.0)            P               Q
    n   0.62671542     Peri.   69.62531     +0.75890247     +0.63565804
    a   1.3523501      Node   250.62979     -0.63929373     +0.68588476
    e   0.6049536      Incl.    8.62281     -0.12397812     +0.35426114
    P   1.57           H   24.5           G   0.15           U   9
    Residuals in seconds of arc
    051204 G96  0.3+  0.1+    051205 G96  0.9-  0.3-    051206 G96  0.2-  0.2+
    051204 G96  0.6-  0.0     051205 G96  0.1-  0.2+    051206 G96  0.2-  0.1-
    051204 G96  0.2+  0.1+    051205 G96  1.3+  0.1+    051206 G96  0.0   0.4+
    051204 G96  0.1+  0.2-    051205 G96  0.0   0.2+    051206 G96  0.1-  0.3+
    051204 G96  0.3-  0.4+    051205 G96  0.1+  0.1-    051206 G96  0.5+  0.0
    051204 G96  0.4+  0.1-    051205 G96  0.3-  0.0     051206 G96  0.0   0.0
    051204 G96  0.3-  0.7-    051205 G96  0.2-  0.1-    051206 G96  0.6+  0.2-
    051204 G96  0.2-  0.2+    051205 G96  0.1-  0.1+    051206 G96  0.1+  0.3+
    051204 G96  0.0   0.0     051206 G96  0.0   0.3-    051206 G96  0.0   0.0
    051204 G96  0.1-  0.1-    051206 G96  0.5+  0.4-    051206 G96  0.9-  0.1-
    051204 G96  0.2+  0.2+    051206 G96  0.3+  0.4-    051206 G96  0.1-  0.2-
    051204 G96  0.4+  0.0     051206 G96  0.3-  0.3+    051206 G96  0.3-  0.1+
    
    Ephemeris:
    2005 XK4                 a,e,i = 1.35, 0.60, 9                   q = 0.5342
    Date    TT    R. A. (2000) Decl.     Delta      r     Elong.  Phase     V
    2005 12 06    04 10.32   +18 19.4    0.132    1.116   169.8     9.0    20.9
    2005 12 08    04 06.28   +16 53.4    0.155    1.136   166.4    11.8    21.4
    2005 12 10    04 03.46   +15 50.4    0.178    1.157   163.3    14.1    21.9
    2005 12 12    04 01.45   +15 03.0    0.202    1.177   160.6    16.1    22.3
    2005 12 14    04 00.05   +14 26.7    0.226    1.197   158.1    17.9    22.6
    2005 12 16    03 59.09   +13 58.7    0.250    1.217   155.7    19.4    22.9
    
    Kyle E. Smalley              (C) Copyright 2005 MPC           M.P.E.C. 2005-X27
    

    Read MPEC 2005-X26 Read MPEC 2005-X28


    MPEC number:

    Enter an MPEC number in one of the following forms:

    • 1997-B01 (the full form)
    • J97B01 (the packed version of the full form)
    • B01 (the abbreviated form)